Miscellaneous Local Product
Issued by NWS North Platte, NE

Home | Current Version | Previous Version | Graphics & Text | Print | Product List | Glossary On
Versions: 1 2 3 4 5 6 7 8 9 10 11 12 13 14 15 16 17 18 19 20 21 22 23 24 25 26 27 28 29 30 31 32 33 34 35 36 37 38 39 40 41 42 43 44 45 46 47 48 49 50
036
AXUS43 KLBF 190410
MISLBF


WESTERN AND NORTH CENTRAL NEBRASKA HOURLY WEATHER ROUNDUP
NATIONAL WEATHER SERVICE NORTH PLATTE NE
1000 PM CST WED JAN 18 2017

NOTE: "FAIR" INDICATES FEW OR NO CLOUDS BELOW 12,000 FEET WITH NO
SIGNIFICANT WEATHER AND/OR OBSTRUCTIONS TO VISIBILITY.

NOTE: STATIONS NOT REPORTING VARIABLES SUCH AS SKY/WEATHER OR
PRESSURE ARE PROVIDED BY RAWS AND APRS NETWORKS AND ARE NOT UNDER
NATIONAL WEATHER SERVICE QUALITY CONTROL.

...OBSERVATIONS IN AND NEAR THE EASTERN PANHANDLE OF NEBRASKA...

CITY           SKY/WX    TMP DP  RH WIND       PRES   REMARKS
PINE RIDGE     CLOUDY    37  27  67 S5        29.62F WCI  33
CHADRON        CLOUDY    25  20  81 SW6       29.62F WCI  18
ALLIANCE       CLOUDY    22  20  92 CALM      29.65F
SIDNEY         CLOUDY    27  23  85 W7        29.68F WCI  19
CRESCENT LAKE    N/A     30  26  83 S6          N/A  WCI  24
$$

...OBSERVATIONS IN NORTHERN NEBRASKA AND FAR SOUTHERN SOUTH DAKOTA...

CITY           SKY/WX    TMP DP  RH WIND       PRES   REMARKS
WINNER         FAIR      41  26  55 SW14      29.64F
VALENTINE      CLOUDY    34  24  67 CALM      29.67F
THEDFORD       CLEAR     36  32  87 S10       29.71F WCI  28
AINSWORTH      CLEAR     35  30  82 S10       29.69S WCI  27
O`NEILL        CLEAR     38  36  93 S8        29.74S WCI  32
ORD            CLEAR     36  33  89 SE7       29.77F WCI  30
BROKEN BOW     CLEAR     37  35  92 S8        29.75F WCI  31
VALENTINE NWR    N/A     33  26  76 S8          N/A  WCI  26
BUTTE            N/A     36  32  86 S9          N/A  WCI  29
HALSEY           N/A     35  31  84 S7          N/A  WCI  29
SARGENT          N/A     33  23  67 CALM        N/A
CHAMBERS         N/A     37  35  93 SW3         N/A
EWING            N/A     39  36  90 S3          N/A
$$

...OBSERVATIONS IN SOUTHWEST NEBRASKA AND FAR NORTHEAST COLORADO...

CITY           SKY/WX    TMP DP  RH WIND       PRES   REMARKS
WRAY           FAIR      28  25  86 W6        29.73F WCI  22
HOLYOKE        FAIR      25  21  86 W8        29.71F WCI  16
IMPERIAL       CLOUDY    30  26  85 SW5       29.73F WCI  25
OGALLALA       CLOUDY    31  28  90 CALM      29.71F
NORTH PLATTE   CLOUDY    30  27  88 E3        29.74F
MCCOOK         CLEAR     32  32 100 SE3       29.76F FOG
LEXINGTON      CLEAR     36  33  90 CALM      29.78F
STAPLETON        N/A     28  26  94 CALM        N/A
GOTHENBURG       N/A     40  35  84 S5          N/A
CALLAWAY         N/A     35  33  93 S9          N/A  WCI  28
$$

...OBSERVATIONS IN CENTRAL LINCOLN COUNTY AREA...

CITY           SKY/WX    TMP DP  RH WIND       PRES   REMARKS
N.P. AIRPORT   CLOUDY    30  27  88 E3        29.74F
N.P. DOWNTOWN    N/A     30  29  94 CALM        N/A
N.P. SOUTHEAST   N/A     32  29  90 CALM        N/A
N.P. HILLCREST   N/A     34  31  90 SE5         N/A  WCI  30
$$

...SOME OBSERVATIONS FROM AROUND THE REGION...

CITY           SKY/WX    TMP DP  RH WIND       PRES   REMARKS
LARAMIE        CLOUDY    14  12  92 E6        29.78F WCI   5
CHEYENNE       CLOUDY    29  17  61 W6        29.71F WCI  23
DENVER         CLOUDY    33  18  53 SW9       29.71F WCI  25
AKRON          CLOUDY    32  18  56 SW8       29.70F WCI  25
SCOTTSBLUFF    CLOUDY    31  23  72 CALM      29.67F
RAPID CITY     CLOUDY    31  23  72 N13       29.57F WCI  21
BISMARCK       CLOUDY    22  17  81 E5        29.61F WCI  16
PIERRE         CLOUDY    21  17  84 CALM      29.62F
SIOUX FALLS    CLEAR     38  37  97 S12       29.76F WCI  30
OMAHA          CLEAR     40  34  79 S12       29.89S WCI  33
GRAND ISLAND   CLEAR     38  36  92 S10       29.81F WCI  31
KANSAS CITY    CLEAR     37  33  85 SE8       29.96S WCI  31
WICHITA        CLOUDY    46  39  76 S9        29.91F
OKLAHOMA CITY  MOCLDY    46  44  93 S7        29.93F
DALLAS         CLOUDY    53  51  93 S7        29.98S
AMARILLO       CLEAR     42  36  79 S13       29.83F
DODGE CITY     CLOUDY    43  42  97 S17       29.81F
HAYS           CLEAR     40  39  97 SE8       29.82  WCI  34
GOODLAND       CLOUDY    35  30  82 S8        29.74F WCI  29
$$




USA.gov is the U.S. government's official web portal to all federal, state and local government web resources and services.